Погода в Нерчинском Заводе

Россия / Забайкальский край     51°18′42″N   119°36′26″E
темп.,
°C
ветер,
м/с
пор.,
м/с
влажн.,
%
обл.,
%
осадки,
мм/ч
давл.,
гПа
погр.,
м
18 сентября, сб
сб1800:00+3ссз225958 0.0 102012
03:00+2сз21595 0.0 102110
06:000ссз1163100 0.0 102310
09:00+5ссв115693 0.0 1023142
12:00+10ю1147100 0.0 1021700
15:00+11ююз2243100 0.0 1019898
18:00+9ю2264100 0.0 101919
21:00+4зюз1166100 0.0 102010
19 сентября, вс
вс1900:00+2с11723 0.0 102110
03:00+1ссз11760 0.0 102110
06:000ссз11800 0.0 102210
09:00+6зсз00640 0.0 1022155
12:00+12ююз12520 0.0 1020583
15:00+14юз23520 0.0 1017862
18:00+12ю22690 0.0 101740
21:00+6ю22795 0.0 101910
20 сентября, пн
пн2000:00+5ююз12800 0.0 101910
03:00+4ююз11825 0.0 101810
06:00+3ю11835 0.0 101710
09:00+8ю227074 0.0 1016163
12:00+11юз2366100 0.1 1014363
15:00+10с1180100 0.4 101346
18:00+11ссз117899 0.0 101234
21:00+9ссв118197 0.1 101310
21 сентября, вт
вт2100:00+7ссв118842 0.1 101210
03:00+7ссв22925 0.1 101210
06:00+6ссв119460 0.0 101210
09:00+10св128599 0.0 1012148
12:00+13всв127596 0.0 1010288
15:00+17в116133 0.0 1008580
18:00+16юз00715 0.1 100811
21:00+11ссв118198 0.1 100911
22 сентября, ср
ср2200:00+9вюв118587 0.0 101011
03:00+8в1187100 0.0 101110
06:00+7в1190100 0.0 101310
09:00+9в1183100 0.0 1013161
12:00+13ююв3468100 0.0 1013807
15:00+15ю2355100 0.0 10121180
18:00+13юз1167100 0.0 101310
21:00+9ююз007492 0.0 101610